Location: Croisilles
(50.1998°N, 2.8793°E)
Time: 21:08:07
(UTC+00:00)

Cosmos 1602 Rocket - Pass Details

Date: 21 January 2021
Orbit: 604 x 632 km, 82.5° (Epoch: 02 March)

Event Time Altitude Azimuth Distance (km) Brightness Sun altitude
Rises 18:43:22 0° 185° (S) 2,853 7.1 -21.9°
Reaches altitude 10° 18:45:34 10° 184° (S) 1,957 6.2 -22.2°
Maximum altitude 18:49:53 80° 99° (E) 628 3.4 -22.9°
Enters shadow 18:50:12 74° 46° (NE) 642 3.4 -23.0°
